Flag for Switzerland Weather past 2 weeks in Thusis, Graubünden, Switzerland

Now
58 °F

Heavy rain. Low clouds.


Feels Like: 58 °F
Forecast: 52 / 66 °F
Wind: No wind

Location: Chur-Ems

Current Time: Jul 29, 2014 at 9:17:51 AM

Latest Report: Jul 29, 2014 at 8:00 AM


Visibility: 3 mi

Pressure: 29.81 "Hg

Humidity: 94%

Dew point: 57 °F

Location of ThusisLocation

Historic Weather in Thusis — Graph

°F

Thusis temperature yesterday

Maximum temperature yesterday: 76 °F (at 5:00 PM)
Minimum temperature yesterday: 57 °F (at 5:00 AM)
Average temperature yesterday: 66 °F

Past Weeks' High & Low Weather Summary

 TemperatureHumidityPressure
High93 °F (Jul 19, 3:00 PM)97% (Jul 22, 2:00 AM)30.22 "Hg (Jul 22, 2:00 AM)
Low54 °F (Jul 25, 6:00 AM)23% (Jul 19, 4:00 PM)29.70 "Hg (Jul 28, 6:00 PM)
Average67 °F71%29.96 "Hg
* Reported Jul 14 8:00 AM — Jul 29 8:00 AM, Thusis, Weather by CustomWeather, © 2014

Note: Actual official high and low records may vary slightly from our data, if they occured in-between our weather recording intervals... More about our weather records

Advertising

Thusis weather history for previous 24 hours

 ConditionsComfort  
Time TempWeatherWind HumidityBarometerVisibility
8:00 AM
Jul 29
58 °FHeavy rain. Low clouds.No wind94%29.81 "Hg3 mi
7:00 AM60 °FCool.2 mph81%29.79 "HgN/A
6:00 AM60 °FCool.8 mph83%29.78 "HgN/A
5:00 AM61 °FFog.7 mph81%29.78 "Hg3 mi
4:00 AM61 °FCool.8 mph84%29.78 "HgN/A
3:00 AM61 °FCool.7 mph83%29.80 "HgN/A
2:00 AM61 °FFog.8 mph84%29.81 "Hg5 mi
1:00 AM61 °FCool.6 mph87%29.83 "HgN/A
12:00 AM64 °FMild.8 mph74%29.81 "HgN/A
11:00 PM
Jul 28
64 °FFog.12 mph77%29.82 "Hg5 mi
10:00 PM65 °FMild.12 mph76%29.80 "HgN/A
9:00 PM69 °FMild.12 mph68%29.76 "HgN/A
8:00 PM71 °FFog.8 mph72%29.73 "Hg7 mi
7:00 PM73 °FMild.9 mph70%29.71 "HgN/A
6:00 PM76 °FMild.2 mph56%29.70 "HgN/A
5:00 PM76 °FPartly sunny.3 mph59%29.70 "Hg7 mi
4:00 PM76 °FMild.12 mph59%29.72 "HgN/A
3:00 PM74 °FMild.5 mph64%29.75 "HgN/A
2:00 PM75 °FPartly sunny.5 mph59%29.77 "Hg9 mi
1:00 PM73 °FMild.1 mph57%29.79 "HgN/A
12:00 PM72 °FMild.5 mph57%29.81 "HgN/A
11:00 AM70 °FFog.6 mph60%29.85 "Hg9 mi
10:00 AM67 °FMild.3 mph70%29.89 "HgN/A
9:00 AM64 °FMild.2 mph78%29.91 "HgN/A
Weather by CustomWeather, © 2014

See weather overviewHow to use our weather pages